This is the latest recevied weather packets stored in our database for station/object VR2R-13. If no packets are shown the sender has not sent any weather packets the latest 10 day(s).
| Time | Temp. | Humidity | Pressure | Rain* | Wind** | Luminosity | Snow |
|---|---|---|---|---|---|---|---|
| 1778271141 | 17.78° C | 97% | 913.5 hPa | 1.27 mm | - | - | - |
| 1778270900 | 17.78° C | 97% | 913.6 hPa | 1.27 mm | - | - | - |
| 1778270781 | 17.78° C | 97% | 914 hPa | 1.27 mm | - | - | - |
| 1778270600 | 17.78° C | 98% | 913.8 hPa | 1.27 mm | - | - | - |
| 1778270299 | 17.78° C | 98% | 913.7 hPa | 0.76 mm | - | - | - |
| 1778270061 | 17.78° C | 98% | 913.8 hPa | 0.76 mm | - | - | - |
| 1778269999 | 17.78° C | 98% | 913.9 hPa | 0.76 mm | - | - | - |
| 1778269701 | 17.78° C | 98% | 913.9 hPa | 0.76 mm | - | - | - |
| 1778269699 | 17.78° C | 98% | 913.9 hPa | 0.76 mm | - | - | - |
| 1778269399 | 17.78° C | 98% | 913.8 hPa | 0.51 mm | - | - | - |
| 1778269341 | 17.78° C | 98% | 913.9 hPa | 0.25 mm | - | - | - |
| 1778269099 | 18.33° C | 98% | 913.9 hPa | 0.25 mm | - | - | - |
| 1778268980 | 18.33° C | 98% | 914.1 hPa | 0 mm | - | - | - |
| 1778268799 | 18.33° C | 98% | 913.8 hPa | 0 mm | - | - | - |
| 1778268620 | 18.33° C | 98% | 914 hPa | 0 mm | - | - | - |
| 1778268499 | 17.78° C | 98% | 914.1 hPa | 0 mm | - | - | - |
| 1778268260 | 18.33° C | 98% | 913.7 hPa | 0.76 mm | - | - | - |
| 1778268199 | 18.33° C | 98% | 913.8 hPa | 0.76 mm | - | - | - |
| 1778267901 | 18.33° C | 98% | 913.9 hPa | 0.51 mm | - | - | - |
| 1778267899 | 18.33° C | 98% | 914.1 hPa | 0.51 mm | - | - | - |
| 1778267599 | 18.33° C | 98% | 914.2 hPa | 0.25 mm | - | - | - |
| 1778267541 | 18.33° C | 98% | 914.2 hPa | 0.25 mm | - | - | - |
| 1778267299 | 18.33° C | 98% | 914.2 hPa | 0 mm | - | - | - |
| 1778267180 | 18.33° C | 98% | 913.7 hPa | 0 mm | - | - | - |
| 1778267000 | 18.33° C | 98% | 913.8 hPa | 2.79 mm | - | - | - |
* Rain latest hour (hover to see other rain measurements)
** Current wind speed in m/s (hover to see current wind gust speed)